Hourly Weather Sudovo

Today, 17 January, Sunday

Time Temperature Precipitation Wind Pressure Humidity
00:00 -20°C° 0.4 mm 4 mps 739 mmHg 95%
01:00 -19°C° 0.4 mm 3 mps 740 mmHg 95%
02:00 -19°C° 0 mm 3 mps 740 mmHg 96%
03:00 -19°C° 0.2 mm 3 mps 740 mmHg 96%
04:00 -18°C° 0.2 mm 2 mps 740 mmHg 96%
05:00 -19°C° 0.2 mm 2 mps 740 mmHg 95%
06:00 -20°C° 0 mm 2 mps 741 mmHg 96%
07:00 -21°C° 0 mm 2 mps 741 mmHg 96%
08:00 -21°C° 0 mm 2 mps 741 mmHg 96%
09:00 -23°C° 0 mm 2 mps 742 mmHg 96%
10:00 -23°C° 0 mm 2 mps 742 mmHg 95%
11:00 -23°C° 0 mm 2 mps 743 mmHg 95%
12:00 -23°C° 0 mm 2 mps 743 mmHg 94%
13:00 -23°C° 0 mm 2 mps 743 mmHg 94%
14:00 -23°C° 0 mm 2 mps 743 mmHg 94%
15:00 -21°C° 0 mm 1 mps 743 mmHg 95%
16:00 -21°C° 0 mm 1 mps 744 mmHg 96%
17:00 -22°C° 0 mm 1 mps 745 mmHg 96%
18:00 -22°C° 0 mm 1 mps 745 mmHg 96%
19:00 -25°C° 0 mm 2 mps 745 mmHg 96%
20:00 -25°C° 0 mm 2 mps 745 mmHg 96%
21:00 -26°C° 0 mm 2 mps 745 mmHg 96%
22:00 -23°C° 0 mm 1 mps 745 mmHg 96%
23:00 -24°C° 0 mm 1 mps 745 mmHg 96%

Tomorrow, 18 January, Monday

Time Temperature Precipitation Wind Pressure Humidity
00:00 -25°C° 0 mm 1 mps 745 mmHg 97%
01:00 -25°C° 0 mm 1 mps 746 mmHg 97%
02:00 -27°C° 0 mm 1 mps 746 mmHg 97%
03:00 -27°C° 0 mm 1 mps 746 mmHg 98%
04:00 -27°C° 0 mm 1 mps 746 mmHg 98%
05:00 -27°C° 0 mm 1 mps 746 mmHg 98%
06:00 -25°C° 0 mm 1 mps 746 mmHg 97%
07:00 -25°C° 0 mm 1 mps 746 mmHg 97%
08:00 -24°C° 0 mm 1 mps 746 mmHg 96%
09:00 -23°C° 0 mm 1 mps 746 mmHg 95%
10:00 -22°C° 0 mm 1 mps 746 mmHg 93%
11:00 -20°C° 0 mm 1 mps 746 mmHg 92%
12:00 -20°C° 0 mm 1 mps 746 mmHg 91%
13:00 -19°C° 0 mm 1 mps 746 mmHg 91%
14:00 -19°C° 0 mm 0 mps 746 mmHg 90%
15:00 -19°C° 0 mm 1 mps 746 mmHg 92%
16:00 -19°C° 0 mm 1 mps 746 mmHg 93%
17:00 -20°C° 0 mm 1 mps 745 mmHg 95%
18:00 -20°C° 0 mm 1 mps 746 mmHg 95%
19:00 -20°C° 0 mm 0 mps 746 mmHg 95%
20:00 -19°C° 0 mm 0 mps 746 mmHg 95%
21:00 -19°C° 0 mm 0 mps 746 mmHg 95%
22:00 -19°C° 0 mm 0 mps 746 mmHg 96%
23:00 -19°C° 0 mm 1 mps 746 mmHg 96%

Day after tomorrow, 19 January, Tuesday

Time Temperature Precipitation Wind Pressure Humidity
00:00 -19°C° 0.1 mm 1 mps 746 mmHg 96%
01:00 -19°C° 0.1 mm 1 mps 745 mmHg 96%
02:00 -19°C° 0.1 mm 1 mps 745 mmHg 96%
03:00 -19°C° 0.1 mm 1 mps 745 mmHg 96%
04:00 -18°C° 0.1 mm 1 mps 745 mmHg 96%
05:00 -18°C° 0.1 mm 1 mps 745 mmHg 96%
06:00 -18°C° 0.1 mm 1 mps 745 mmHg 97%
07:00 -18°C° 0.1 mm 1 mps 745 mmHg 97%
08:00 -18°C° 0.1 mm 1 mps 745 mmHg 97%
09:00 -18°C° 0 mm 1 mps 745 mmHg 95%
10:00 -17°C° 0 mm 1 mps 745 mmHg 94%
11:00 -16°C° 0 mm 1 mps 745 mmHg 92%
12:00 -16°C° 0 mm 1 mps 745 mmHg 92%
13:00 -18°C° 0 mm 2 mps 744 mmHg 92%
14:00 -17°C° 0 mm 2 mps 744 mmHg 92%
15:00 -18°C° 0 mm 2 mps 744 mmHg 93%
16:00 -18°C° 0 mm 2 mps 744 mmHg 95%
17:00 -19°C° 0 mm 2 mps 744 mmHg 96%
18:00 -19°C° 0 mm 2 mps 744 mmHg 96%
19:00 -19°C° 0 mm 2 mps 745 mmHg 96%
20:00 -17°C° 0 mm 1 mps 745 mmHg 96%
21:00 -19°C° 0 mm 2 mps 745 mmHg 97%
22:00 -19°C° 0 mm 2 mps 745 mmHg 97%
23:00 -19°C° 0 mm 2 mps 745 mmHg 97%

20 January, Wednesday

Time Temperature Precipitation Wind Pressure Humidity
00:00 -19°C° 0 mm 2 mps 745 mmHg 97%
01:00 -20°C° 0 mm 2 mps 746 mmHg 97%
02:00 -20°C° 0 mm 2 mps 746 mmHg 97%
03:00 -20°C° 0 mm 2 mps 746 mmHg 98%
04:00 -20°C° 0 mm 2 mps 746 mmHg 98%
05:00 -21°C° 0 mm 2 mps 746 mmHg 98%
06:00 -21°C° 0 mm 2 mps 747 mmHg 98%
07:00 -21°C° 0 mm 2 mps 747 mmHg 98%
08:00 -19°C° 0 mm 1 mps 747 mmHg 98%
09:00 -18°C° 0 mm 1 mps 747 mmHg 97%
10:00 -19°C° 0 mm 2 mps 748 mmHg 96%
11:00 -18°C° 0 mm 2 mps 748 mmHg 95%
12:00 -17°C° 0 mm 2 mps 748 mmHg 95%
13:00 -17°C° 0 mm 2 mps 748 mmHg 95%
14:00 -16°C° 0 mm 2 mps 748 mmHg 95%
15:00 -17°C° 0 mm 2 mps 748 mmHg 95%
16:00 -18°C° 0 mm 2 mps 748 mmHg 96%
17:00 -20°C° 0 mm 2 mps 749 mmHg 96%
18:00 -20°C° 0 mm 2 mps 749 mmHg 97%
19:00 -20°C° 0 mm 2 mps 749 mmHg 97%
20:00 -20°C° 0 mm 2 mps 749 mmHg 97%
21:00 -20°C° 0 mm 2 mps 749 mmHg 97%
22:00 -20°C° 0 mm 2 mps 749 mmHg 97%
23:00 -20°C° 0 mm 2 mps 749 mmHg 97%

21 January, Thursday

Time Temperature Precipitation Wind Pressure Humidity
00:00 -20°C° 0 mm 2 mps 749 mmHg 96%
01:00 -23°C° 0 mm 3 mps 749 mmHg 95%
02:00 -23°C° 0 mm 3 mps 749 mmHg 94%
03:00 -22°C° 0 mm 3 mps 748 mmHg 93%
04:00 -22°C° 0 mm 3 mps 748 mmHg 91%
05:00 -22°C° 0 mm 3 mps 748 mmHg 90%
06:00 -22°C° 0 mm 4 mps 747 mmHg 91%
07:00 -20°C° 0 mm 4 mps 747 mmHg 91%
08:00 -20°C° 0 mm 5 mps 747 mmHg 92%
09:00 -18°C° 0.1 mm 5 mps 746 mmHg 93%
10:00 -17°C° 0.1 mm 5 mps 746 mmHg 93%
11:00 -15°C° 0.1 mm 6 mps 745 mmHg 94%
12:00 -15°C° 0.2 mm 6 mps 745 mmHg 93%
13:00 -14°C° 0.2 mm 6 mps 744 mmHg 93%
14:00 -12°C° 0.2 mm 6 mps 744 mmHg 93%
15:00 -11°C° 0.3 mm 5 mps 744 mmHg 94%
16:00 -10°C° 0.3 mm 5 mps 743 mmHg 94%
17:00 -8°C° 0.3 mm 5 mps 743 mmHg 94%
18:00 -8°C° 0.1 mm 4 mps 743 mmHg 94%
19:00 -8°C° 0.1 mm 4 mps 743 mmHg 94%
20:00 -7°C° 0.1 mm 4 mps 743 mmHg 94%
21:00 -5°C° 0.1 mm 4 mps 743 mmHg 95%
22:00 -5°C° 0.1 mm 4 mps 743 mmHg 95%
23:00 -4°C° 0.1 mm 4 mps 743 mmHg 95%

22 January, Friday

Time Temperature Precipitation Wind Pressure Humidity
00:00 -4°C° 0.1 mm 4 mps 743 mmHg 95%
01:00 -3°C° 0.1 mm 4 mps 743 mmHg 95%
02:00 -3°C° 0.1 mm 4 mps 743 mmHg 95%
03:00 -3°C° 0 mm 4 mps 743 mmHg 95%
04:00 -4°C° 0 mm 5 mps 742 mmHg 95%
05:00 -4°C° 0 mm 5 mps 742 mmHg 95%
06:00 -4°C° 0 mm 5 mps 742 mmHg 95%
07:00 -4°C° 0 mm 5 mps 742 mmHg 95%
08:00 -5°C° 0 mm 5 mps 743 mmHg 95%
09:00 -5°C° 0 mm 5 mps 743 mmHg 96%
10:00 -4°C° 0 mm 5 mps 743 mmHg 96%
11:00 -3°C° 0 mm 4 mps 743 mmHg 96%
12:00 -4°C° 0 mm 5 mps 742 mmHg 96%
13:00 -4°C° 0 mm 5 mps 742 mmHg 96%
14:00 -4°C° 0 mm 5 mps 742 mmHg 97%
15:00 -4°C° 0.1 mm 5 mps 742 mmHg 97%
16:00 -3°C° 0.1 mm 4 mps 742 mmHg 97%
17:00 -2°C° 0.1 mm 4 mps 742 mmHg 97%
18:00 -3°C° 0.2 mm 4 mps 742 mmHg 97%
19:00 -2°C° 0.2 mm 3 mps 742 mmHg 96%
20:00 -2°C° 0.2 mm 3 mps 742 mmHg 96%
21:00 -1°C° 0 mm 3 mps 742 mmHg 96%
22:00 -1°C° 0 mm 3 mps 742 mmHg 95%
23:00 -1°C° 0 mm 3 mps 742 mmHg 95%
Show more